Time,TemperatureF,DewpointF,PressureIn,WindDirection,WindDirectionDegrees,WindSpeedMPH,WindSpeedGustMPH,Humidity,HourlyPrecipIn,Conditions,Clouds,dailyrainin,SoftwareType,DateUTC
2013-03-01 00:00:00,32.4,28.7,30.06,NNW,338,5.0,14.0,86,0.00,,OVC027,0.03,VWS V13.01,2013-03-01 05:00:00,
2013-03-01 00:05:00,32.4,30.3,30.06,NNW,348,10.0,10.0,92,0.00,,OVC027,0.00,VWS V13.01,2013-03-01 05:05:00,
2013-03-01 00:06:00,32.4,28.7,30.06,NNW,333,5.0,10.0,86,0.00,,OVC027,0.00,VWS V13.01,2013-03-01 05:06:00,
2013-03-01 00:11:00,32.3,28.6,30.06,NNW,331,6.0,13.0,86,0.00,,OVC027,0.00,VWS V13.01,2013-03-01 05:11:00,
2013-03-01 00:16:00,32.4,28.7,30.06,NW,320,3.0,13.0,86,0.00,,OVC027,0.00,VWS V13.01,2013-03-01 05:16:00,
2013-03-01 00:21:00,32.3,28.6,30.06,NW,323,3.0,13.0,86,0.00,,OVC027,0.00,VWS V13.01,2013-03-01 05:21:00,
2013-03-01 00:26:00,32.3,28.6,30.06,NW,319,9.0,13.0,86,0.00,,OVC027,0.00,VWS V13.01,2013-03-01 05:26:00,
2013-03-01 00:31:00,32.3,28.6,30.06,NW,323,8.0,13.0,86,0.00,,OVC027,0.00,VWS V13.01,2013-03-01 05:31:00,
2013-03-01 00:36:00,32.3,28.6,30.06,NW,323,2.0,7.0,86,0.00,,OVC027,0.00,VWS V13.01,2013-03-01 05:36:00,
2013-03-01 00:41:00,32.3,28.6,30.06,NW,313,5.0,11.0,86,0.00,,OVC027,0.00,VWS V13.01,2013-03-01 05:41:00,
2013-03-01 00:46:00,32.3,28.6,30.06,NW,315,4.0,11.0,86,0.00,,OVC027,0.00,VWS V13.01,2013-03-01 05:46:00,
2013-03-01 00:51:00,32.2,28.5,30.06,NW,315,3.0,11.0,86,0.00,,OVC027,0.00,VWS V13.01,2013-03-01 05:51:00,
2013-03-01 00:56:00,32.2,28.5,30.06,NW,311,2.0,11.0,86,0.00,,OVC027,0.00,VWS V13.01,2013-03-01 05:56:00,
2013-03-01 01:01:00,32.2,28.5,30.06,NW,314,3.0,11.0,86,0.00,,OVC027,0.00,VWS V13.01,2013-03-01 06:01:00,
2013-03-01 01:06:00,32.1,28.7,30.05,NW,313,6.0,7.0,87,0.00,,OVC027,0.00,VWS V13.01,2013-03-01 06:06:00,
2013-03-01 01:11:00,32.1,28.7,30.06,NW,311,6.0,9.0,87,0.00,,OVC027,0.00,VWS V13.01,2013-03-01 06:11:00,
2013-03-01 01:16:00,32.1,28.7,30.06,NW,310,3.0,9.0,87,0.00,,OVC027,0.00,VWS V13.01,2013-03-01 06:16:00,
2013-03-01 01:21:00,32.1,28.4,30.06,NW,317,7.0,12.0,86,0.00,,OVC027,0.00,VWS V13.01,2013-03-01 06:21:00,
2013-03-01 01:26:00,32.1,28.4,30.06,NNW,327,7.0,12.0,86,0.00,,OVC027,0.00,VWS V13.01,2013-03-01 06:26:00,
2013-03-01 01:31:00,32.1,28.4,30.06,NNW,327,2.0,12.0,86,0.00,,OVC027,0.00,VWS V13.01,2013-03-01 06:31:00,
2013-03-01 01:36:00,32.1,28.7,30.06,NW,323,6.0,6.0,87,0.00,,OVC027,0.00,VWS V13.01,2013-03-01 06:36:00,
2013-03-01 01:41:00,32.1,28.7,30.06,NNW,331,6.0,10.0,87,0.00,,OVC027,0.00,VWS V13.01,2013-03-01 06:41:00,
2013-03-01 01:46:00,32.1,28.7,30.05,NW,317,7.0,13.0,87,0.00,,OVC027,0.00,VWS V13.01,2013-03-01 06:46:00,
2013-03-01 01:51:00,32.1,28.7,30.05,NNW,333,6.0,13.0,87,0.00,,OVC027,0.00,VWS V13.01,2013-03-01 06:51:00,
2013-03-01 01:56:00,32.1,28.7,30.05,NNW,330,7.0,13.0,87,0.00,,OVC027,0.00,VWS V13.01,2013-03-01 06:56:00,
2013-03-01 02:01:00,32.0,28.6,30.05,NNW,327,3.0,13.0,87,0.00,,OVC027,0.00,VWS V13.01,2013-03-01 07:01:00,
2013-03-01 02:06:00,32.0,28.6,30.05,NNW,338,6.0,10.0,87,0.00,,OVC027,0.00,VWS V13.01,2013-03-01 07:06:00,
2013-03-01 02:11:00,31.9,28.5,30.05,NNW,327,4.0,10.0,87,0.00,,OVC027,0.00,VWS V13.01,2013-03-01 07:11:00,
2013-03-01 02:16:00,31.9,28.5,30.05,NNW,327,5.0,10.0,87,0.00,,OVC027,0.00,VWS V13.01,2013-03-01 07:16:00,
2013-03-01 02:21:00,31.9,28.5,30.05,NW,319,6.0,10.0,87,0.00,,OVC027,0.00,VWS V13.01,2013-03-01 07:21:00,
2013-03-01 02:26:00,31.8,28.7,30.05,NW,322,3.0,10.0,88,0.00,,OVC027,0.00,VWS V13.01,2013-03-01 07:26:00,
2013-03-01 02:31:00,31.7,28.6,30.05,NW,323,2.0,10.0,88,0.00,,OVC027,0.00,VWS V13.01,2013-03-01 07:31:00,
2013-03-01 02:36:00,31.7,28.6,30.05,NW,322,3.0,4.0,88,0.00,,OVC027,0.00,VWS V13.01,2013-03-01 07:36:00,
2013-03-01 02:41:00,31.6,28.5,30.05,NW,321,4.0,7.0,88,0.00,,OVC027,0.00,VWS V13.01,2013-03-01 07:41:00,
2013-03-01 02:46:00,31.6,28.7,30.05,NW,321,1.0,7.0,89,0.00,,OVC027,0.00,VWS V13.01,2013-03-01 07:46:00,
2013-03-01 02:51:00,31.6,28.7,30.05,NW,321,3.0,7.0,89,0.00,,OVC027,0.00,VWS V13.01,2013-03-01 07:51:00,
2013-03-01 02:56:00,31.5,28.6,30.04,NW,321,2.0,7.0,89,0.00,,OVC027,0.00,VWS V13.01,2013-03-01 07:56:00,
2013-03-01 03:01:00,31.5,28.6,30.04,NW,321,1.0,7.0,89,0.00,,OVC027,0.00,VWS V13.01,2013-03-01 08:01:00,
2013-03-01 03:06:00,31.5,28.6,30.04,NW,322,5.0,7.0,89,0.00,,OVC027,0.00,VWS V13.01,2013-03-01 08:06:00,
2013-03-01 03:11:00,31.4,28.5,30.05,NW,321,3.0,7.0,89,0.00,,OVC027,0.00,VWS V13.01,2013-03-01 08:11:00,
2013-03-01 03:16:00,31.4,28.5,30.04,NW,321,4.0,7.0,89,0.00,,OVC027,0.00,VWS V13.01,2013-03-01 08:16:00,
2013-03-01 03:21:00,31.4,28.8,30.04,NW,321,3.0,7.0,90,0.00,,OVC027,0.00,VWS V13.01,2013-03-01 08:21:00,
2013-03-01 03:26:00,31.4,28.8,30.04,NW,320,2.0,7.0,90,0.00,,OVC027,0.00,VWS V13.01,2013-03-01 08:26:00,
2013-03-01 03:31:00,31.3,28.7,30.04,NW,319,3.0,7.0,90,0.00,,OVC027,0.00,VWS V13.01,2013-03-01 08:31:00,
2013-03-01 03:36:00,31.3,28.7,30.04,NW,320,3.0,7.0,90,0.00,,OVC027,0.00,VWS V13.01,2013-03-01 08:36:00,
2013-03-01 03:41:00,31.3,28.7,30.04,NW,321,6.0,7.0,90,0.00,,OVC027,0.00,VWS V13.01,2013-03-01 08:41:00,
2013-03-01 03:46:00,31.3,28.7,30.04,NW,321,7.0,7.0,90,0.00,,OVC027,0.00,VWS V13.01,2013-03-01 08:46:00,
2013-03-01 03:51:00,31.3,28.7,30.04,NW,323,6.0,9.0,90,0.00,,OVC027,0.00,VWS V13.01,2013-03-01 08:51:00,
2013-03-01 03:56:00,31.3,28.7,30.04,NW,323,3.0,9.0,90,0.00,,OVC027,0.00,VWS V13.01,2013-03-01 08:56:00,
2013-03-01 04:01:00,31.3,28.7,30.04,NNW,329,6.0,10.0,90,0.00,,OVC027,0.00,VWS V13.01,2013-03-01 09:01:00,
2013-03-01 04:06:00,31.3,28.7,30.04,NNW,329,6.0,10.0,90,0.00,,OVC027,0.00,VWS V13.01,2013-03-01 09:06:00,
2013-03-01 04:11:00,31.3,28.7,30.04,NNW,329,5.0,10.0,90,0.00,,OVC027,0.00,VWS V13.01,2013-03-01 09:11:00,
2013-03-01 04:16:00,31.2,28.6,30.04,NNW,329,5.0,10.0,90,0.00,,OVC027,0.00,VWS V13.01,2013-03-01 09:16:00,
2013-03-01 04:21:00,31.2,28.9,30.04,NNW,330,7.0,10.0,91,0.00,,OVC027,0.00,VWS V13.01,2013-03-01 09:21:00,
2013-03-01 04:26:00,31.2,28.6,30.04,NNW,327,3.0,10.0,90,0.00,,OVC027,0.00,VWS V13.01,2013-03-01 09:26:00,
2013-03-01 04:31:00,31.2,28.6,30.04,NNW,327,3.0,10.0,90,0.00,,OVC027,0.00,VWS V13.01,2013-03-01 09:31:00,
2013-03-01 04:36:00,31.2,28.6,30.04,NW,325,4.0,6.0,90,0.00,,OVC027,0.00,VWS V13.01,2013-03-01 09:36:00,
2013-03-01 04:41:00,31.2,28.9,30.04,NW,320,5.0,7.0,91,0.00,,OVC027,0.00,VWS V13.01,2013-03-01 09:41:00,
2013-03-01 04:46:00,31.2,28.9,30.04,NNW,327,3.0,7.0,91,0.00,,OVC027,0.00,VWS V13.01,2013-03-01 09:46:00,
2013-03-01 04:51:00,31.2,28.9,30.04,NNW,329,6.0,7.0,91,0.00,,OVC027,0.00,VWS V13.01,2013-03-01 09:51:00,
2013-03-01 04:56:00,31.2,28.9,30.05,NNW,329,5.0,9.0,91,0.00,,OVC027,0.00,VWS V13.01,2013-03-01 09:56:00,
2013-03-01 05:01:00,31.2,28.9,30.05,NNW,329,4.0,9.0,91,0.00,,OVC027,0.00,VWS V13.01,2013-03-01 10:01:00,
2013-03-01 05:06:00,31.2,28.9,30.05,NNW,329,6.0,6.0,91,0.00,,OVC027,0.00,VWS V13.01,2013-03-01 10:06:00,
2013-03-01 05:11:00,31.2,28.9,30.05,NNW,329,2.0,6.0,91,0.00,,OVC027,0.00,VWS V13.01,2013-03-01 10:11:00,
2013-03-01 05:16:00,31.2,28.9,30.05,NNW,343,3.0,7.0,91,0.00,,OVC027,0.00,VWS V13.01,2013-03-01 10:16:00,
2013-03-01 05:21:00,31.2,28.9,30.05,NNW,343,2.0,7.0,91,0.00,,OVC027,0.00,VWS V13.01,2013-03-01 10:21:00,
2013-03-01 05:26:00,31.2,28.9,30.05,NNW,343,4.0,7.0,91,0.00,,OVC027,0.00,VWS V13.01,2013-03-01 10:26:00,
2013-03-01 05:31:00,31.2,28.9,30.06,NNW,334,2.0,7.0,91,0.00,,OVC027,0.00,VWS V13.01,2013-03-01 10:31:00,
2013-03-01 05:35:00,31.2,28.9,30.06,NNW,329,5.0,6.0,91,0.00,,OVC027,0.00,VWS V13.01,2013-03-01 10:35:00,
2013-03-01 05:40:00,31.3,29.0,30.06,NNW,330,2.0,6.0,91,0.00,,OVC027,0.00,VWS V13.01,2013-03-01 10:40:00,
2013-03-01 05:45:00,31.2,28.9,30.06,NNW,332,7.0,7.0,91,0.00,,OVC027,0.00,VWS V13.01,2013-03-01 10:45:00,
2013-03-01 05:50:00,31.3,29.0,30.06,NNW,332,3.0,7.0,91,0.00,,OVC027,0.00,VWS V13.01,2013-03-01 10:50:00,
2013-03-01 05:55:00,31.3,29.0,30.06,NNW,332,2.0,7.0,91,0.00,,OVC027,0.00,VWS V13.01,2013-03-01 10:55:00,
2013-03-01 06:00:00,31.3,29.0,30.06,NNW,329,6.0,7.0,91,0.00,,OVC027,0.00,VWS V13.01,2013-03-01 11:00:00,
2013-03-01 06:05:00,31.3,29.0,30.06,NNW,329,4.0,7.0,91,0.00,,OVC027,0.00,VWS V13.01,2013-03-01 11:05:00,
2013-03-01 06:10:00,31.3,29.0,30.06,NNW,329,5.0,7.0,91,0.00,,OVC027,0.00,VWS V13.01,2013-03-01 11:10:00,
2013-03-01 06:16:00,31.3,29.0,30.06,NNW,329,3.0,7.0,91,0.00,,OVC027,0.00,VWS V13.01,2013-03-01 11:16:00,
2013-03-01 06:20:00,31.3,29.0,30.06,NNW,329,7.0,9.0,91,0.00,,OVC027,0.00,VWS V13.01,2013-03-01 11:20:00,
2013-03-01 06:25:00,31.3,29.0,30.06,NNW,329,2.0,9.0,91,0.00,,OVC027,0.00,VWS V13.01,2013-03-01 11:25:00,
2013-03-01 06:30:00,31.3,29.0,30.06,NNW,329,4.0,9.0,91,0.00,,OVC027,0.00,VWS V13.01,2013-03-01 11:30:00,
2013-03-01 06:35:00,31.3,29.0,30.06,NNW,329,5.0,6.0,91,0.00,,OVC027,0.00,VWS V13.01,2013-03-01 11:35:00,
2013-03-01 06:40:00,31.3,29.0,30.06,NNW,330,3.0,7.0,91,0.00,,OVC027,0.00,VWS V13.01,2013-03-01 11:40:00,
2013-03-01 06:45:00,31.3,29.0,30.06,NNW,330,2.0,7.0,91,0.00,,OVC027,0.00,VWS V13.01,2013-03-01 11:45:00,
2013-03-01 06:50:00,31.3,29.0,30.07,NNW,330,2.0,7.0,91,0.00,,OVC027,0.00,VWS V13.01,2013-03-01 11:50:00,
2013-03-01 06:56:00,31.4,29.1,30.06,NNW,330,1.0,7.0,91,0.00,,OVC027,0.00,VWS V13.01,2013-03-01 11:56:00,
2013-03-01 07:01:00,31.4,29.1,30.06,NNW,330,2.0,7.0,91,0.00,,OVC027,0.00,VWS V13.01,2013-03-01 12:01:00,
2013-03-01 07:06:00,31.4,29.1,30.06,NNW,330,2.0,4.0,91,0.00,,OVC027,0.00,VWS V13.01,2013-03-01 12:06:00,
2013-03-01 07:11:00,31.4,29.1,30.07,NNW,330,3.0,5.0,91,0.00,,OVC027,0.00,VWS V13.01,2013-03-01 12:11:00,
2013-03-01 07:16:00,31.4,29.1,30.07,NNW,335,3.0,7.0,91,0.00,,OVC027,0.00,VWS V13.01,2013-03-01 12:16:00,
2013-03-01 07:21:00,31.4,29.1,30.07,NNW,335,2.0,7.0,91,0.00,,OVC027,0.00,VWS V13.01,2013-03-01 12:21:00,
2013-03-01 07:26:00,31.4,29.1,30.07,NNW,335,2.0,7.0,91,0.00,,OVC027,0.00,VWS V13.01,2013-03-01 12:26:00,
2013-03-01 07:31:00,31.4,29.1,30.07,NNW,335,1.0,7.0,91,0.00,,OVC027,0.00,VWS V13.01,2013-03-01 12:31:00,
2013-03-01 07:36:00,31.5,29.2,30.07,NNW,335,2.0,3.0,91,0.00,,OVC027,0.00,VWS V13.01,2013-03-01 12:36:00,
2013-03-01 07:41:00,31.5,29.2,30.07,NNW,335,5.0,6.0,91,0.00,,OVC027,0.00,VWS V13.01,2013-03-01 12:41:00,
2013-03-01 07:46:00,31.5,29.2,30.07,NNW,335,3.0,6.0,91,0.00,,OVC027,0.00,VWS V13.01,2013-03-01 12:46:00,
2013-03-01 07:51:00,31.5,29.2,30.08,NNW,336,3.0,6.0,91,0.00,,OVC027,0.00,VWS V13.01,2013-03-01 12:51:00,
2013-03-01 07:56:00,31.5,29.2,30.08,NNW,336,2.0,6.0,91,0.00,,OVC027,0.00,VWS V13.01,2013-03-01 12:56:00,
2013-03-01 08:01:00,31.6,29.3,30.08,NNW,336,5.0,6.0,91,0.00,,OVC027,0.00,VWS V13.01,2013-03-01 13:01:00,
2013-03-01 08:06:00,31.6,29.3,30.08,NNW,336,3.0,5.0,91,0.00,,OVC027,0.00,VWS V13.01,2013-03-01 13:06:00,
2013-03-01 08:11:00,31.6,29.3,30.08,NNW,336,1.0,5.0,91,0.00,,OVC027,0.00,VWS V13.01,2013-03-01 13:11:00,
2013-03-01 08:16:00,31.6,29.3,30.08,NNW,336,3.0,5.0,91,0.00,,OVC027,0.00,VWS V13.01,2013-03-01 13:16:00,
2013-03-01 08:20:00,31.6,29.3,30.09,NNW,336,0.0,5.0,91,0.00,,OVC027,0.00,VWS V13.01,2013-03-01 13:20:00,
2013-03-01 08:25:00,31.7,29.4,30.09,NNW,336,1.0,5.0,91,0.00,,OVC027,0.00,VWS V13.01,2013-03-01 13:25:00,
2013-03-01 08:30:00,31.7,29.4,30.09,NNW,336,5.0,5.0,91,0.00,,OVC027,0.00,VWS V13.01,2013-03-01 13:30:00,
2013-03-01 08:35:00,31.7,29.4,30.09,NNW,336,4.0,4.0,91,0.00,,OVC027,0.00,VWS V13.01,2013-03-01 13:35:00,
2013-03-01 08:40:00,31.7,29.4,30.09,NNW,336,4.0,5.0,91,0.00,,OVC027,0.00,VWS V13.01,2013-03-01 13:40:00,
2013-03-01 08:45:00,31.7,29.4,30.09,NNW,336,2.0,5.0,91,0.00,,OVC027,0.00,VWS V13.01,2013-03-01 13:45:00,
2013-03-01 08:50:00,31.8,29.5,30.09,NNW,336,2.0,5.0,91,0.00,,OVC027,0.00,VWS V13.01,2013-03-01 13:50:00,
2013-03-01 08:55:00,31.8,29.5,30.09,NNW,336,4.0,6.0,91,0.00,,OVC027,0.00,VWS V13.01,2013-03-01 13:55:00,
2013-03-01 09:00:00,31.9,29.6,30.09,NNW,336,3.0,6.0,91,0.00,,OVC027,0.00,VWS V13.01,2013-03-01 14:00:00,
2013-03-01 09:05:00,31.9,29.6,30.09,NNW,336,2.0,5.0,91,0.00,,OVC027,0.00,VWS V13.01,2013-03-01 14:05:00,
2013-03-01 09:10:00,32.0,29.7,30.09,NNW,336,4.0,5.0,91,0.00,,OVC027,0.00,VWS V13.01,2013-03-01 14:10:00,
2013-03-01 09:15:00,32.0,29.7,30.09,NNW,336,2.0,5.0,91,0.00,,OVC027,0.00,VWS V13.01,2013-03-01 14:15:00,
2013-03-01 09:20:00,32.0,29.7,30.09,NE,34,4.0,6.0,91,0.00,,OVC027,0.00,VWS V13.01,2013-03-01 14:20:00,
2013-03-01 09:25:00,32.0,29.7,30.09,NE,36,4.0,6.0,91,0.00,,OVC027,0.00,VWS V13.01,2013-03-01 14:25:00,
2013-03-01 09:30:00,32.0,29.7,30.09,NNE,33,6.0,9.0,91,0.00,,OVC027,0.00,VWS V13.01,2013-03-01 14:30:00,
2013-03-01 09:35:00,32.0,29.7,30.09,NE,36,2.0,6.0,91,0.00,,OVC027,0.00,VWS V13.01,2013-03-01 14:35:00,
2013-03-01 09:40:00,32.0,29.7,30.09,NE,45,4.0,9.0,91,0.00,,OVC027,0.00,VWS V13.01,2013-03-01 14:40:00,
2013-03-01 09:45:00,32.1,29.8,30.09,NE,38,2.0,9.0,91,0.00,,OVC027,0.00,VWS V13.01,2013-03-01 14:45:00,
2013-03-01 09:50:00,32.1,29.8,30.09,NE,48,4.0,11.0,91,0.00,,OVC027,0.00,VWS V13.01,2013-03-01 14:50:00,
2013-03-01 09:55:00,32.1,29.8,30.09,NE,44,5.0,11.0,91,0.00,,OVC027,0.00,VWS V13.01,2013-03-01 14:55:00,
2013-03-01 10:00:00,32.0,29.7,30.09,NNE,19,6.0,11.0,91,0.00,,OVC027,0.00,VWS V13.01,2013-03-01 15:00:00,
2013-03-01 10:05:00,31.8,29.5,30.10,NE,53,9.0,10.0,91,0.00,,OVC027,0.00,VWS V13.01,2013-03-01 15:05:00,
2013-03-01 10:10:00,31.6,29.3,30.10,NE,34,3.0,10.0,91,0.00,,OVC027,0.00,VWS V13.01,2013-03-01 15:10:00,
2013-03-01 10:15:00,31.5,29.2,30.10,NE,34,2.0,10.0,91,0.00,,OVC027,0.00,VWS V13.01,2013-03-01 15:15:00,
2013-03-01 10:20:00,31.6,29.0,30.10,NE,41,4.0,12.0,90,0.00,,OVC027,0.00,VWS V13.01,2013-03-01 15:20:00,
2013-03-01 10:25:00,31.6,29.0,30.10,NNE,25,6.0,12.0,90,0.00,,OVC027,0.00,VWS V13.01,2013-03-01 15:25:00,
2013-03-01 10:30:00,31.6,29.0,30.10,NNE,30,5.0,12.0,90,0.00,,OVC027,0.00,VWS V13.01,2013-03-01 15:30:00,
2013-03-01 10:35:00,31.6,29.0,30.10,NE,39,8.0,9.0,90,0.00,,OVC003,0.00,VWS V13.01,2013-03-01 15:35:00,
2013-03-01 10:40:00,31.6,29.0,30.11,NNE,22,4.0,11.0,90,0.00,,OVC003,0.00,VWS V13.01,2013-03-01 15:40:00,
2013-03-01 10:45:00,31.6,28.7,30.11,NE,49,6.0,13.0,89,0.00,,OVC003,0.00,VWS V13.01,2013-03-01 15:45:00,
2013-03-01 10:50:00,31.5,28.6,30.11,NE,39,7.0,13.0,89,0.00,,OVC003,0.00,VWS V13.01,2013-03-01 15:50:00,
2013-03-01 10:55:00,31.5,28.4,30.11,NE,44,4.0,13.0,88,0.00,,OVC003,0.00,VWS V13.01,2013-03-01 15:55:00,
2013-03-01 11:00:00,31.7,28.6,30.11,NE,48,10.0,13.0,88,0.00,,OVC003,0.00,VWS V13.01,2013-03-01 16:00:00,
2013-03-01 11:05:00,31.7,28.6,30.11,NE,48,3.0,7.0,88,0.00,,OVC003,0.00,VWS V13.01,2013-03-01 16:05:00,
2013-03-01 11:10:00,31.8,28.4,30.11,NE,42,5.0,9.0,87,0.00,,OVC003,0.00,VWS V13.01,2013-03-01 16:10:00,
2013-03-01 11:15:00,32.0,28.6,30.12,NE,52,9.0,10.0,87,0.00,,OVC003,0.00,VWS V13.01,2013-03-01 16:15:00,
2013-03-01 11:20:00,32.0,28.6,30.11,NE,51,5.0,10.0,87,0.00,,OVC003,0.00,VWS V13.01,2013-03-01 16:20:00,
2013-03-01 11:25:00,32.2,28.5,30.11,NE,48,6.0,10.0,86,0.00,,OVC003,0.00,VWS V13.01,2013-03-01 16:25:00,
2013-03-01 11:30:00,32.3,28.6,30.12,ENE,58,6.0,12.0,86,0.00,,OVC003,0.00,VWS V13.01,2013-03-01 16:30:00,
2013-03-01 11:35:00,32.3,28.6,30.12,NE,46,6.0,9.0,86,0.00,,OVC003,0.00,VWS V13.01,2013-03-01 16:35:00,
2013-03-01 11:40:00,32.3,28.3,30.12,NE,42,9.0,10.0,85,0.00,,OVC003,0.00,VWS V13.01,2013-03-01 16:40:00,
2013-03-01 11:45:00,32.4,28.7,30.12,NE,43,5.0,10.0,86,0.00,,OVC003,0.01,VWS V13.01,2013-03-01 16:45:00,
2013-03-01 11:50:00,32.3,28.3,30.12,NE,49,5.0,10.0,85,0.01,,OVC003,0.01,VWS V13.01,2013-03-01 16:50:00,
2013-03-01 11:55:00,32.3,28.6,30.12,NE,43,4.0,10.0,86,0.01,,OVC003,0.01,VWS V13.01,2013-03-01 16:55:00,
2013-03-01 12:00:00,32.4,28.7,30.12,NNE,29,7.0,11.0,86,0.01,,OVC003,0.01,VWS V13.01,2013-03-01 17:00:00,
2013-03-01 12:05:00,32.5,28.8,30.12,NNE,32,3.0,10.0,86,0.01,,OVC003,0.01,VWS V13.01,2013-03-01 17:05:00,
2013-03-01 12:10:00,32.6,28.9,30.12,NNE,28,11.0,11.0,86,0.01,,OVC003,0.01,VWS V13.01,2013-03-01 17:10:00,
2013-03-01 12:15:00,32.6,28.9,30.12,NNE,32,8.0,12.0,86,0.01,,OVC003,0.01,VWS V13.01,2013-03-01 17:15:00,
2013-03-01 12:20:00,32.5,28.8,30.12,NE,40,6.0,12.0,86,0.01,,OVC003,0.01,VWS V13.01,2013-03-01 17:20:00,
2013-03-01 12:25:00,32.5,28.8,30.12,NE,43,4.0,12.0,86,0.01,,OVC003,0.01,VWS V13.01,2013-03-01 17:25:00,
2013-03-01 12:30:00,32.6,28.6,30.12,NNE,25,9.0,12.0,85,0.01,,OVC003,0.01,VWS V13.01,2013-03-01 17:30:00,
2013-03-01 12:35:00,32.8,29.1,30.12,NNE,28,4.0,10.0,86,0.01,,OVC003,0.01,VWS V13.01,2013-03-01 17:35:00,
2013-03-01 12:40:00,32.6,28.3,30.12,NE,40,4.0,10.0,84,0.01,,OVC003,0.01,VWS V13.01,2013-03-01 17:40:00,
2013-03-01 12:45:00,32.5,28.5,30.12,NE,34,6.0,10.0,85,0.01,,OVC003,0.01,VWS V13.01,2013-03-01 17:45:00,
2013-03-01 12:50:00,32.5,28.5,30.12,NNE,33,7.0,12.0,85,0.01,,OVC003,0.01,VWS V13.01,2013-03-01 17:50:00,
2013-03-01 12:55:00,32.5,28.5,30.12,NNE,25,11.0,12.0,85,0.01,,OVC003,0.01,VWS V13.01,2013-03-01 17:55:00,
2013-03-01 13:00:00,32.6,28.6,30.12,NNE,22,5.0,12.0,85,0.01,,OVC003,0.01,VWS V13.01,2013-03-01 18:00:00,
2013-03-01 13:05:00,32.6,28.3,30.12,NNE,26,2.0,10.0,84,0.00,,OVC003,0.01,VWS V13.01,2013-03-01 18:05:00,
2013-03-01 13:10:00,32.7,28.4,30.12,NE,40,5.0,11.0,84,0.00,,OVC003,0.01,VWS V13.01,2013-03-01 18:10:00,
2013-03-01 13:15:00,32.8,28.5,30.12,NNE,19,5.0,11.0,84,0.00,,OVC003,0.01,VWS V13.01,2013-03-01 18:15:00,
2013-03-01 13:20:00,32.9,28.3,30.12,NE,50,6.0,11.0,83,0.00,,OVC003,0.01,VWS V13.01,2013-03-01 18:20:00,
2013-03-01 13:25:00,33.0,28.7,30.12,NNE,32,1.0,11.0,84,0.00,,OVC003,0.01,VWS V13.01,2013-03-01 18:25:00,
2013-03-01 13:30:00,33.2,28.9,30.11,NE,38,3.0,12.0,84,0.00,,OVC003,0.01,VWS V13.01,2013-03-01 18:30:00,
2013-03-01 13:35:00,33.2,28.9,30.11,NE,36,8.0,8.0,84,0.00,,OVC003,0.01,VWS V13.01,2013-03-01 18:35:00,
2013-03-01 13:40:00,33.2,28.3,30.11,NE,44,3.0,12.0,82,0.00,,OVC003,0.01,VWS V13.01,2013-03-01 18:40:00,
2013-03-01 13:45:00,33.2,28.3,30.11,NE,39,6.0,12.0,82,0.00,,OVC003,0.01,VWS V13.01,2013-03-01 18:45:00,
2013-03-01 13:50:00,33.4,28.5,30.11,NE,35,4.0,12.0,82,0.00,,OVC003,0.01,VWS V13.01,2013-03-01 18:50:00,
2013-03-01 13:55:00,33.6,28.7,30.11,NE,34,5.0,12.0,82,0.00,,OVC003,0.01,VWS V13.01,2013-03-01 18:55:00,
2013-03-01 14:00:00,33.7,28.8,30.10,NNE,30,10.0,12.0,82,0.00,,OVC003,0.01,VWS V13.01,2013-03-01 19:00:00,
2013-03-01 14:05:00,33.6,28.4,30.10,NE,39,6.0,10.0,81,0.00,,OVC003,0.01,VWS V13.01,2013-03-01 19:05:00,
2013-03-01 14:10:00,33.4,27.9,30.11,NE,38,7.0,10.0,80,0.01,,OVC003,0.02,VWS V13.01,2013-03-01 19:10:00,
2013-03-01 14:15:00,33.3,27.8,30.11,NE,37,6.0,12.0,80,0.01,,OVC003,0.02,VWS V13.01,2013-03-01 19:15:00,
2013-03-01 14:20:00,33.3,27.8,30.11,NE,43,4.0,12.0,80,0.01,,OVC003,0.02,VWS V13.01,2013-03-01 19:20:00,
2013-03-01 14:25:00,33.4,27.9,30.10,NE,36,9.0,12.0,80,0.01,,OVC003,0.02,VWS V13.01,2013-03-01 19:25:00,
2013-03-01 14:30:00,33.7,28.5,30.10,NNE,31,6.0,12.0,81,0.01,,OVC003,0.02,VWS V13.01,2013-03-01 19:30:00,
2013-03-01 14:35:00,33.9,28.4,30.10,NNE,13,11.0,11.0,80,0.01,,OVC003,0.02,VWS V13.01,2013-03-01 19:35:00,
2013-03-01 14:40:00,33.9,28.1,30.10,NE,47,13.0,15.0,79,0.01,,OVC003,0.02,VWS V13.01,2013-03-01 19:40:00,
2013-03-01 14:45:00,33.7,27.9,30.10,NE,36,4.0,15.0,79,0.01,,OVC003,0.02,VWS V13.01,2013-03-01 19:45:00,
2013-03-01 14:50:00,33.5,27.7,30.10,NNE,19,5.0,15.0,79,0.01,,OVC003,0.02,VWS V13.01,2013-03-01 19:50:00,
2013-03-01 14:55:00,33.5,27.7,30.10,NE,44,6.0,15.0,79,0.01,,OVC003,0.02,VWS V13.01,2013-03-01 19:55:00,
2013-03-01 15:00:00,33.6,27.8,30.10,NNE,24,4.0,15.0,79,0.01,,OVC003,0.02,VWS V13.01,2013-03-01 20:00:00,
2013-03-01 15:05:00,33.8,28.0,30.11,NNE,26,4.0,10.0,79,0.01,,OVC003,0.02,VWS V13.01,2013-03-01 20:05:00,
2013-03-01 15:10:00,33.7,27.3,30.11,NNE,26,4.0,13.0,77,0.01,,OVC003,0.02,VWS V13.01,2013-03-01 20:10:00,
2013-03-01 15:15:00,33.6,27.8,30.11,NE,40,6.0,13.0,79,0.01,,OVC003,0.02,VWS V13.01,2013-03-01 20:15:00,
2013-03-01 15:20:00,33.7,27.9,30.11,NNE,28,6.0,13.0,79,0.01,,OVC003,0.02,VWS V13.01,2013-03-01 20:20:00,
2013-03-01 15:25:00,33.7,27.6,30.11,NNE,15,6.0,14.0,78,0.01,,OVC003,0.02,VWS V13.01,2013-03-01 20:25:00,
2013-03-01 15:30:00,33.5,27.4,30.11,NNE,22,11.0,14.0,78,0.01,,OVC003,0.02,VWS V13.01,2013-03-01 20:30:00,
2013-03-01 15:35:00,33.4,27.3,30.11,NE,48,12.0,12.0,78,0.00,,OVC003,0.02,VWS V13.01,2013-03-01 20:35:00,
2013-03-01 15:40:00,33.4,27.3,30.11,NNE,29,5.0,13.0,78,0.00,,OVC003,0.02,VWS V13.01,2013-03-01 20:40:00,
2013-03-01 15:45:00,33.4,27.3,30.11,NNE,33,6.0,13.0,78,0.00,,OVC003,0.02,VWS V13.01,2013-03-01 20:45:00,
2013-03-01 15:50:00,33.2,27.1,30.11,NE,35,6.0,13.0,78,0.00,,OVC003,0.02,VWS V13.01,2013-03-01 20:50:00,
2013-03-01 15:55:00,33.0,26.9,30.11,NNE,24,7.0,13.0,78,0.00,,OVC003,0.02,VWS V13.01,2013-03-01 20:55:00,
2013-03-01 16:00:00,32.9,27.1,30.11,NE,39,6.0,13.0,79,0.00,,OVC003,0.02,VWS V13.01,2013-03-01 21:00:00,
2013-03-01 16:05:00,32.8,26.7,30.11,NE,49,4.0,10.0,78,0.00,,OVC003,0.02,VWS V13.01,2013-03-01 21:05:00,
2013-03-01 16:10:00,32.5,26.4,30.11,NE,48,3.0,10.0,78,0.00,,OVC003,0.02,VWS V13.01,2013-03-01 21:10:00,
2013-03-01 16:15:00,32.4,26.3,30.12,NE,47,6.0,10.0,78,0.00,,OVC003,0.02,VWS V13.01,2013-03-01 21:15:00,
2013-03-01 16:20:00,32.3,26.2,30.12,NE,46,4.0,10.0,78,0.00,,OVC003,0.02,VWS V13.01,2013-03-01 21:20:00,
2013-03-01 16:25:00,32.4,26.6,30.12,NNE,33,10.0,12.0,79,0.00,,OVC003,0.02,VWS V13.01,2013-03-01 21:25:00,
2013-03-01 16:30:00,32.3,26.2,30.12,NNE,28,8.0,12.0,78,0.00,,OVC003,0.02,VWS V13.01,2013-03-01 21:30:00,
2013-03-01 16:35:00,32.4,26.6,30.12,NNE,32,9.0,9.0,79,0.00,,OVC024,0.02,VWS V13.01,2013-03-01 21:35:00,
2013-03-01 16:40:00,32.5,26.7,30.12,NE,34,4.0,9.0,79,0.00,,OVC024,0.02,VWS V13.01,2013-03-01 21:40:00,
2013-03-01 16:45:00,32.5,26.7,30.12,NNE,33,3.0,10.0,79,0.00,,OVC024,0.02,VWS V13.01,2013-03-01 21:45:00,
2013-03-01 16:50:00,32.5,26.4,30.12,NNE,33,4.0,10.0,78,0.00,,OVC024,0.02,VWS V13.01,2013-03-01 21:50:00,
2013-03-01 16:55:00,32.5,26.7,30.12,NNE,29,7.0,10.0,79,0.00,,OVC024,0.02,VWS V13.01,2013-03-01 21:55:00,
2013-03-01 17:00:00,32.5,26.7,30.12,NNE,28,5.0,11.0,79,0.00,,OVC024,0.02,VWS V13.01,2013-03-01 22:00:00,
2013-03-01 17:05:00,32.4,26.6,30.12,NNE,27,4.0,6.0,79,0.00,,OVC024,0.02,VWS V13.01,2013-03-01 22:05:00,
2013-03-01 17:10:00,32.5,27.0,30.12,NNE,27,4.0,6.0,80,0.00,,OVC024,0.02,VWS V13.01,2013-03-01 22:10:00,
2013-03-01 17:15:00,32.4,26.3,30.12,NNE,28,4.0,8.0,78,0.00,,OVC024,0.02,VWS V13.01,2013-03-01 22:15:00,
2013-03-01 17:20:00,32.4,26.6,30.13,NE,34,7.0,10.0,79,0.00,,OVC024,0.02,VWS V13.01,2013-03-01 22:20:00,
2013-03-01 17:25:00,32.4,26.3,30.13,NNE,32,4.0,10.0,78,0.00,,OVC024,0.02,VWS V13.01,2013-03-01 22:25:00,
2013-03-01 17:30:00,32.3,26.5,30.13,NE,40,6.0,13.0,79,0.00,,OVC024,0.02,VWS V13.01,2013-03-01 22:30:00,
2013-03-01 17:35:00,32.3,26.2,30.13,NE,44,8.0,8.0,78,0.00,,OVC024,0.02,VWS V13.01,2013-03-01 22:35:00,
2013-03-01 17:40:00,32.0,25.9,30.13,NE,42,2.0,9.0,78,0.00,,OVC024,0.02,VWS V13.01,2013-03-01 22:40:00,
2013-03-01 17:45:00,32.0,26.2,30.13,NE,39,5.0,9.0,79,0.00,,OVC024,0.02,VWS V13.01,2013-03-01 22:45:00,
2013-03-01 17:50:00,31.9,26.1,30.13,NE,42,4.0,10.0,79,0.00,,OVC024,0.02,VWS V13.01,2013-03-01 22:50:00,
2013-03-01 17:55:00,31.9,26.4,30.14,NE,42,3.0,10.0,80,0.00,,OVC024,0.02,VWS V13.01,2013-03-01 22:55:00,
2013-03-01 18:00:00,31.8,26.4,30.14,NE,36,6.0,10.0,80,0.00,,OVC024,0.02,VWS V13.01,2013-03-01 23:00:00,
2013-03-01 18:05:00,31.8,26.4,30.14,NE,42,5.0,10.0,80,0.00,,OVC024,0.02,VWS V13.01,2013-03-01 23:05:00,
2013-03-01 18:10:00,31.7,26.2,30.14,NNE,30,3.0,11.0,80,0.00,,OVC024,0.02,VWS V13.01,2013-03-01 23:10:00,
2013-03-01 18:15:00,31.6,26.1,30.14,NE,45,2.0,11.0,80,0.00,,OVC024,0.02,VWS V13.01,2013-03-01 23:15:00,
2013-03-01 18:20:00,31.6,25.9,30.14,NE,45,6.0,11.0,79,0.00,,OVC024,0.02,VWS V13.01,2013-03-01 23:20:00,
2013-03-01 18:25:00,31.5,26.0,30.14,NE,44,5.0,11.0,80,0.00,,OVC024,0.02,VWS V13.01,2013-03-01 23:25:00,
2013-03-01 18:30:00,31.5,26.0,30.14,NE,44,5.0,11.0,80,0.00,,OVC024,0.02,VWS V13.01,2013-03-01 23:30:00,
2013-03-01 18:35:00,31.5,26.0,30.15,NE,44,5.0,7.0,80,0.00,,OVC024,0.02,VWS V13.01,2013-03-01 23:35:00,
2013-03-01 18:40:00,31.4,26.0,30.15,NE,43,2.0,7.0,80,0.00,,OVC024,0.02,VWS V13.01,2013-03-01 23:40:00,
2013-03-01 18:45:00,31.4,26.0,30.15,NE,55,4.0,7.0,80,0.00,,OVC024,0.02,VWS V13.01,2013-03-01 23:45:00,
2013-03-01 18:50:00,31.3,25.6,30.15,NE,42,5.0,11.0,79,0.00,,OVC024,0.02,VWS V13.01,2013-03-01 23:50:00,
2013-03-01 18:55:00,31.2,25.8,30.15,NE,51,4.0,11.0,80,0.00,,OVC024,0.02,VWS V13.01,2013-03-01 23:55:00,
2013-03-01 19:00:00,31.2,25.8,30.15,NE,51,4.0,11.0,80,0.00,,OVC024,0.02,VWS V13.01,2013-03-02 00:00:00,
2013-03-01 19:05:00,31.1,25.7,30.16,NE,48,3.0,11.0,80,0.00,,OVC024,0.02,VWS V13.01,2013-03-02 00:05:00,
2013-03-01 19:10:00,31.0,25.3,30.16,NE,46,9.0,12.0,79,0.00,,OVC024,0.02,VWS V13.01,2013-03-02 00:10:00,
2013-03-01 19:15:00,31.0,25.3,30.16,NE,42,7.0,12.0,79,0.00,,OVC024,0.02,VWS V13.01,2013-03-02 00:15:00,
2013-03-01 19:20:00,31.0,25.6,30.16,NE,34,9.0,12.0,80,0.00,,OVC024,0.02,VWS V13.01,2013-03-02 00:20:00,
2013-03-01 19:25:00,31.0,25.6,30.16,NNE,32,5.0,12.0,80,0.00,,OVC024,0.02,VWS V13.01,2013-03-02 00:25:00,
2013-03-01 19:30:00,31.0,25.6,30.16,NNE,32,6.0,12.0,80,0.00,,OVC024,0.02,VWS V13.01,2013-03-02 00:30:00,
2013-03-01 19:35:00,30.9,25.5,30.16,NNE,33,9.0,9.0,80,0.00,,OVC024,0.02,VWS V13.01,2013-03-02 00:35:00,
2013-03-01 19:40:00,30.9,25.8,30.16,NE,44,5.0,14.0,81,0.00,,OVC024,0.02,VWS V13.01,2013-03-02 00:40:00,
2013-03-01 19:45:00,30.7,25.0,30.16,ENE,63,3.0,14.0,79,0.00,,OVC024,0.02,VWS V13.01,2013-03-02 00:45:00,
2013-03-01 19:50:00,30.5,24.8,30.16,NE,36,4.0,14.0,79,0.00,,OVC024,0.02,VWS V13.01,2013-03-02 00:50:00,
2013-03-01 19:55:00,30.4,25.0,30.16,NNE,29,9.0,14.0,80,0.00,,OVC024,0.02,VWS V13.01,2013-03-02 00:55:00,
2013-03-01 20:00:00,30.3,24.9,30.16,NE,40,10.0,14.0,80,0.00,,OVC024,0.02,VWS V13.01,2013-03-02 01:00:00,
2013-03-01 20:05:00,30.2,24.8,30.16,NNE,21,3.0,4.0,80,0.00,,OVC024,0.02,VWS V13.01,2013-03-02 01:05:00,
2013-03-01 20:10:00,30.2,24.8,30.16,NE,38,7.0,7.0,80,0.00,,OVC024,0.02,VWS V13.01,2013-03-02 01:10:00,
2013-03-01 20:15:00,30.1,24.7,30.16,NE,46,6.0,10.0,80,0.00,,OVC024,0.02,VWS V13.01,2013-03-02 01:15:00,
2013-03-01 20:20:00,30.0,24.3,30.17,NE,46,2.0,10.0,79,0.00,,OVC024,0.02,VWS V13.01,2013-03-02 01:20:00,
2013-03-01 20:25:00,29.9,24.5,30.17,NE,38,3.0,10.0,80,0.00,,OVC024,0.02,VWS V13.01,2013-03-02 01:25:00,
2013-03-01 20:30:00,29.8,24.4,30.17,NE,38,4.0,10.0,80,0.00,,OVC024,0.02,VWS V13.01,2013-03-02 01:30:00,
2013-03-01 20:35:00,29.8,24.4,30.17,NE,43,3.0,5.0,80,0.00,,OVC024,0.02,VWS V13.01,2013-03-02 01:35:00,
2013-03-01 20:40:00,29.7,24.3,30.17,NE,41,4.0,9.0,80,0.00,,OVC024,0.02,VWS V13.01,2013-03-02 01:40:00,
2013-03-01 20:45:00,29.7,24.3,30.17,NE,40,3.0,9.0,80,0.00,,OVC024,0.02,VWS V13.01,2013-03-02 01:45:00,
2013-03-01 20:50:00,29.7,24.3,30.17,NE,43,4.0,9.0,80,0.00,,OVC024,0.02,VWS V13.01,2013-03-02 01:50:00,
2013-03-01 20:55:00,29.6,24.5,30.17,NE,36,4.0,10.0,81,0.00,,OVC024,0.02,VWS V13.01,2013-03-02 01:55:00,
2013-03-01 21:00:00,29.6,24.2,30.17,NE,35,5.0,10.0,80,0.00,,OVC024,0.02,VWS V13.01,2013-03-02 02:00:00,
2013-03-01 21:05:00,29.6,24.5,30.17,NE,35,3.0,9.0,81,0.00,,OVC024,0.02,VWS V13.01,2013-03-02 02:05:00,
2013-03-01 21:10:00,29.5,24.1,30.17,NE,36,3.0,9.0,80,0.00,,OVC024,0.02,VWS V13.01,2013-03-02 02:10:00,
2013-03-01 21:15:00,29.5,24.1,30.17,NE,49,4.0,10.0,80,0.00,,OVC024,0.02,VWS V13.01,2013-03-02 02:15:00,
2013-03-01 21:20:00,29.4,24.0,30.18,ENE,68,3.0,10.0,80,0.00,,OVC024,0.02,VWS V13.01,2013-03-02 02:20:00,
2013-03-01 21:25:00,29.4,24.0,30.17,NE,40,5.0,10.0,80,0.00,,OVC024,0.02,VWS V13.01,2013-03-02 02:25:00,
2013-03-01 21:30:00,29.3,23.9,30.17,NE,44,10.0,10.0,80,0.00,,OVC024,0.02,VWS V13.01,2013-03-02 02:30:00,
2013-03-01 21:35:00,29.3,23.6,30.17,NE,48,3.0,7.0,79,0.00,,OVC024,0.02,VWS V13.01,2013-03-02 02:35:00,
2013-03-01 21:40:00,29.3,23.6,30.18,NE,46,2.0,10.0,79,0.00,,OVC024,0.02,VWS V13.01,2013-03-02 02:40:00,
2013-03-01 21:45:00,29.3,23.6,30.18,NNE,31,7.0,11.0,79,0.00,,OVC024,0.02,VWS V13.01,2013-03-02 02:45:00,
2013-03-01 21:50:00,29.3,23.9,30.18,NE,36,4.0,11.0,80,0.00,,OVC024,0.02,VWS V13.01,2013-03-02 02:50:00,
2013-03-01 21:55:00,29.3,23.9,30.18,NE,42,4.0,11.0,80,0.00,,OVC024,0.02,VWS V13.01,2013-03-02 02:55:00,
2013-03-01 22:00:00,29.3,23.9,30.18,NNE,30,5.0,12.0,80,0.00,,OVC024,0.02,VWS V13.01,2013-03-02 03:00:00,
2013-03-01 22:05:00,29.3,23.6,30.18,NNE,26,5.0,8.0,79,0.00,,OVC024,0.02,VWS V13.01,2013-03-02 03:05:00,
2013-03-01 22:10:00,29.3,23.3,30.18,NNE,28,10.0,11.0,78,0.00,,OVC024,0.02,VWS V13.01,2013-03-02 03:10:00,
2013-03-01 22:15:00,29.2,22.9,30.18,NNE,24,11.0,14.0,77,0.00,,OVC024,0.02,VWS V13.01,2013-03-02 03:15:00,
2013-03-01 22:20:00,29.2,22.9,30.18,NE,35,9.0,14.0,77,0.00,,OVC024,0.02,VWS V13.01,2013-03-02 03:20:00,
2013-03-01 22:25:00,29.2,22.9,30.18,NNE,25,9.0,14.0,77,0.00,,OVC024,0.02,VWS V13.01,2013-03-02 03:25:00,
2013-03-01 22:30:00,29.2,22.9,30.18,NNE,32,3.0,14.0,77,0.00,,OVC024,0.02,VWS V13.01,2013-03-02 03:30:00,
2013-03-01 22:35:00,29.2,23.2,30.18,NNE,29,4.0,6.0,78,0.00,,OVC024,0.02,VWS V13.01,2013-03-02 03:35:00,
2013-03-01 22:40:00,29.1,22.8,30.18,NE,34,6.0,11.0,77,0.00,,OVC024,0.02,VWS V13.01,2013-03-02 03:40:00,
2013-03-01 22:45:00,29.0,22.4,30.18,NNE,18,7.0,12.0,76,0.00,,OVC024,0.02,VWS V13.01,2013-03-02 03:45:00,
2013-03-01 22:50:00,28.9,22.3,30.18,NNE,27,5.0,14.0,76,0.00,,OVC024,0.02,VWS V13.01,2013-03-02 03:50:00,
2013-03-01 22:55:00,28.9,22.6,30.18,NE,36,11.0,14.0,77,0.00,,OVC024,0.02,VWS V13.01,2013-03-02 03:55:00,
2013-03-01 23:00:00,28.8,22.2,30.18,NNE,28,4.0,14.0,76,0.00,,OVC024,0.02,VWS V13.01,2013-03-02 04:00:00,
2013-03-01 23:05:00,28.8,22.2,30.18,NNE,31,10.0,10.0,76,0.00,,OVC024,0.02,VWS V13.01,2013-03-02 04:05:00,
2013-03-01 23:10:00,28.7,22.1,30.18,NE,37,6.0,13.0,76,0.00,,OVC024,0.02,VWS V13.01,2013-03-02 04:10:00,
2013-03-01 23:15:00,28.7,21.8,30.18,NNE,33,6.0,13.0,75,0.00,,OVC024,0.02,VWS V13.01,2013-03-02 04:15:00,
2013-03-01 23:20:00,28.7,21.8,30.18,NNE,33,9.0,13.0,75,0.00,,OVC024,0.02,VWS V13.01,2013-03-02 04:20:00,
2013-03-01 23:25:00,28.6,21.7,30.17,NE,43,5.0,13.0,75,0.00,,OVC024,0.02,VWS V13.01,2013-03-02 04:25:00,
2013-03-01 23:30:00,28.6,21.7,30.18,NE,36,11.0,13.0,75,0.00,,OVC024,0.02,VWS V13.01,2013-03-02 04:30:00,
2013-03-01 23:35:00,28.6,22.0,30.17,NE,40,11.0,11.0,76,0.00,,OVC024,0.02,VWS V13.01,2013-03-02 04:35:00,
2013-03-01 23:40:00,28.6,21.7,30.17,NE,39,6.0,11.0,75,0.00,,OVC024,0.02,VWS V13.01,2013-03-02 04:40:00,
2013-03-01 23:45:00,28.6,22.0,30.17,NNE,28,9.0,11.0,76,0.00,,OVC024,0.02,VWS V13.01,2013-03-02 04:45:00,
2013-03-01 23:50:00,28.6,22.3,30.18,NE,40,4.0,11.0,77,0.00,,OVC024,0.02,VWS V13.01,2013-03-02 04:50:00,
2013-03-01 23:55:00,28.5,22.2,30.18,NNE,26,8.0,11.0,77,0.00,,OVC024,0.02,VWS V13.01,2013-03-02 04:55:00,